www.pogodaiklimat.ru

Погода и климат >> Архив погоды >> Мексика >> Manzanillo


ПОГОДА в Manzanillo

  • Прогноз погоды в Manzanillo
  • Монитор погоды в Manzanillo
  • Климат города

АРХИВ ПОГОДЫ в Manzanillo

Время (UTC), дата Ветер
(напр.,м/с)
 
Видим.   Явления Облачность Т
(С)
Тd
(С)
f
(%)
Тe
(С)
Тes
(С)
Комфортность P
(гПа)
Po
(гПа)
Тmin
(С)
Tmax
(С)
R
(мм)
R24
(мм)
S
(см)
06 17.05 штиль 0 6000 м мгла {туман} ясно +22.2 +20.8 92 +29 +29 очень
душно
1011.7 1011.3 +21.4 +28.6
09 17.05 штиль 0 6000 м мгла {туман} ясно +21.2 +20.2 94 +26 +26 душно 1009.7 1009.3
12 17.05 штиль 0 6000 м мгла {туман} ясно +21.0 +19.8 93 +26 +26 душно 1011.0 1010.6 +21.0 +28.6
15 17.05 ЮВ 2 6000 м мгла {туман} 10/6 300 м
[St As op]
+22.0 +20.0 88 +28 +28 душно 1012.4 1012.0
18 17.05 З 3 6000 м мгла {туман} ясно +26.1 +20.7 72 +33 +50 очень
душно
1012.5 1012.1 +21.0 +27.5
21 17.05 З 4 6000 м мгла {туман} ясно +25.2 +21.1 78 +32 +43 очень
душно
1010.1 1009.7
00 18.05 З 3 6000 м мгла {туман} ясно +24.7 +20.7 78 +31 +33 очень
душно
1009.6 1009.2 +21.0 +27.6
03 18.05 З 3 6000 м мгла {туман} ясно +24.7 +20.7 78 +31 +31 очень
душно
1009.6 1009.2 +21.0 +27.6
06 18.05 З 7 6000 м мгла {туман} ясно +22.8 +20.4 86 +30 +30 очень
душно
1011.1 1010.8
12 18.05 штиль 0 6000 м мгла {туман} 4/4 600 м
[Sc]
+20.4 +17.1 81 +23 +23 комфорт 1009.7 1009.3 +20.4 +27.6
15 18.05 В 1 6000 м мгла {туман} ясно +24.0 +19.7 77 +29 +38 душно 1010.5 1010.2
18 18.05 З 4 6000 м мгла {туман} ясно +25.9 +20.7 73 +32 +47 очень
душно
1011.2 1010.8 +20.1 +27.2
21 18.05 ЮЗ 4 6000 м мгла {туман} ясно +25.9 +20.7 73 +32 +44 очень
душно
1009.7 1009.3
00 19.05 З 3 6000 м мгла {туман} ясно +24.8 +20.9 79 +31 +33 очень
душно
1008.0 1007.6 +20.1 +27.2
03 19.05 штиль 0 6000 м мгла {туман} ясно +22.4 +20.6 90 +29 +29 очень
душно
1008.6 1008.2
06 19.05 штиль 0 6000 м мгла {туман} ясно +22.2 +20.5 90 +29 +29 очень
душно
1009.1 1008.7 +20.1 +27.2
09 19.05 С 1 6000 м мгла {туман} ясно +21.2 +18.3 84 +25 +25 комфорт 1009.2 1008.8
12 19.05 штиль 0 6000 м мгла {туман} ясно +21.0 +18.4 85 +25 +25 комфорт 1009.8 1009.4 +21.0 +27.2
15 19.05 ЮВ 1 6000 м мгла {туман} 10/0 1500 м
[As op]
+23.4 +21.0 86 +31 +33 очень
душно
1011.5 1011.1
18 19.05 ЮЗ 3 6000 м мгла {туман} 10/1 600 м
[Sc As op]
+25.3 +20.3 74 +31 +34 очень
душно
1011.1 1010.7 +20.7 +25.7
21 19.05 З 4 6000 м мгла {туман} ясно +25.4 +20.6 75 +32 +43 очень
душно
1012.0 1011.6
00 20.05 Ю 3 6000 м мгла {туман} ясно +24.6 +20.3 77 +30 +32 очень
душно
1007.3 1006.9 +20.7 +26.5
03 20.05 З 4 6000 м мгла {туман} ясно +22.3 +20.3 88 +29 +29 очень
душно
1007.4 1007.0
06 20.05 З 1 6000 м мгла {туман} ясно +21.7 +20.6 93 +27 +27 душно 1008.3 1007.9 +20.7 +26.5
09 20.05 штиль 0 6000 м мгла {туман} ясно +21.1 +19.2 89 +26 +26 душно 1007.9 1007.5
12 20.05 штиль 0 6000 м мгла {туман} ясно +20.9 +19.9 94 +25 +25 комфорт 1007.5 1007.1 +20.6 +26.5
15 20.05 С 2 6000 м мгла {туман} ясно +24.0 +21.2 84 +30 +37 очень
душно
1010.7 1010.3
18 20.05 Ю 2 6000 м мгла {туман} ясно +27.8 +22.6 73 +37 +58 опасность
солнечного
удара
1010.6 1010.2 +20.4 +28.6
21 20.05 ЮЗ 3 6000 м мгла {туман} 5/1 600 м
[Sc diur, vesp Cs]
+27.8 +23 +35 комфорт 1009.0 1008.6
00 21.05 З 4 6000 м мгла {туман} 3/0
[Cs]
+26.5 +25.4 94 +39 +40 очень
душно
1008.9 1008.5 +20.4 +29.1
09 21.05 штиль 0 6000 м мгла {туман} ясно +22.1 +19.4 85 +28 +28 душно 1010.7 1010.3
12 21.05 штиль 0 6000 м мгла {туман} ясно +21.0 +18.3 85 +25 +25 комфорт 1010.9 1010.5 +21.0 +29.1
15 21.05 В 1 6000 м мгла {туман} ясно +25.2 +21.6 80 +32 +41 очень
душно
1012.0 1011.6
18 21.05 Ю 2 6000 м мгла {туман} ясно +27.1 +21.5 71 +34 +55 опасность
солнечного
удара
1012.5 1012.1 +20.2 +29.1
21 21.05 З 5 6000 м мгла {туман} 10/0
[Cs]
+27.1 +21.2 70 +34 +41 очень
душно
1010.8 1010.4
00 22.05 ЮЗ 3 6000 м мгла {туман} ясно +26.2 +21.6 76 +34 +36 очень
душно
1010.4 1010.0 +20.2 +29.1
03 22.05 штиль 0 6000 м мгла {туман} ясно +23.7 +22.2 91 +31 +31 очень
душно
1010.5 1010.1
06 22.05 В 1 6000 м мгла {туман} ясно +23.7 +22.7 94 +31 +31 очень
душно
1012.4 1012.0 +20.2 +29.1
09 22.05 ЮВ 1 6000 м мгла {туман} ясно +23.0 +20.4 85 +30 +30 очень
душно
1011.7 1011.3
12 22.05 В 1 6000 м мгла {туман} ясно +23.0 +19.5 81 +30 +30 очень
душно
1012.0 1011.6 +22.8 +29.1
15 22.05 С 2 6000 м мгла {туман} ясно +24.8 +21.3 81 +31 +39 очень
душно
1012.3 1011.9
18 22.05 СЗ 3 6000 м мгла {туман} ясно +27.4 +21.9 72 +35 +53 опасность
солнечного
удара
1012.2 1011.8 +22.7 +28.4
21 22.05 З 5 6000 м мгла {туман} ясно +27.1 +22.6 76 +36 +45 очень
душно
1010.9 1010.5
00 23.05 З 5 6000 м мгла {туман} ясно +25.8 +22.4 82 +34 +35 очень
душно
1009.8 1009.4 +22.7 +28.5
03 23.05 З 1 6000 м мгла {туман} ясно +25.4 +22.4 83 +33 +33 очень
душно
1011.2 1010.8
06 23.05 штиль 0 6000 м мгла {туман} ясно +24.9 +23.3 91 +33 +33 очень
душно
1011.9 1011.5 +22.7 +28.5
09 23.05 штиль 0 6000 м мгла {туман} ясно +24.4 +21.0 81 +31 +31 очень
душно
1010.5 1010.1
12 23.05 штиль 0 6000 м мгла {туман} ясно +23.4 +20.9 86 +31 +31 очень
душно
1010.9 1010.5 +23.4 +28.5
15 23.05 В 1 6000 м мгла {туман} ясно +28.4 +22.7 71 +38 +46 очень
душно
1011.7 1011.3
18 23.05 Ю 2 6000 м мгла {туман} ясно +31.0 +24.5 68 +43 +64 опасность
перегрева
1012.2 1011.8 +22.9 +32.0
21 23.05 З 3 6000 м мгла {туман} 4/0
[Cs]
+29.4 +23.0 68 +39 +52 опасность
солнечного
удара
1010.8 1010.4
00 24.05 З 3 6000 м мгла {туман} 1/0
[Cs]
+28.1 +22.8 73 +37 +39 очень
душно
1009.1 1008.8 +22.9 +32.0
03 24.05 З 3 6000 м мгла {туман} ясно +26.2 +22.2 79 +34 +34 очень
душно
1010.6 1010.2

 

Местоположение метеостанции Manzanillo (Мексика): широта 19.05 долгота -104.30 высота над уровнем моря 3 м.

В архиве по умолчанию представлена погода в Manzanillo за последнюю неделю. Архивные данные за месяц целиком и за предыдущие месяцы, начиная с января 2011 года, Вы можете получить, выбрав интересующий диапазон дат из раскрывающегося списка и нажав кнопку "Ввод!".

Внимание! Время в таблицах - всемирное. Для получения местного времени необходимо прибавить поправку, которая в Manzanillo равна -6 ч.

Смотрите также архив погоды в соседних городах и на ближайших метеорологических станциях:

Погода в Colima (Мексика) (88 км)
Погода в Ciudad Guzman (Мексика) (120 км)
Погода в Guadalajara (Мексика) (208 км)
Погода в Zamora (Мексика) (234 км)
Погода в Tepic (Мексика) (280 км)
Погода в Morelia (Мексика) (343 км)
Погода в Colotlan (Мексика) (356 км)
Погода в Lagos De Moreno (Мексика) (357 км)
Погода в Aguascalientes (Мексика) (377 км)
Погода в Huejucar (Мексика) (383 км)

Пояснения к столбцам:

Ветер - указаны скорость ветра в м/с - средняя за 10 мин, порывы в срок и между сроками (в фигурных скобках) и направление, откуда дует ветер: С - северный, СВ - северо-восточный, В - восточный, ЮВ - юго-восточный, Ю - южный, ЮЗ - юго-западный, З - западный, СЗ - северо-западный.
Видимость - горизонтальная дальность видимости в метрах или километрах. При видимости от 1 до 10 км при отсутствии осадков обычно наблюдается дымка, при ухудшении видимости до 1 км и менее - туман. В сухую погоду видимость может ухудшаться дымом, пылью или мглою.
Явления - указаны атмосферные явления, наблюдавшиеся в срок или в последний час перед сроком; фигурными скобками обозначены явления, наблюдавшиеся между сроками (за 1-3 часа до срока); квадратными скобками обозначены град или гололедные отложения с указанием их диаметра в мм.
Облачность - указаны через наклонную черту общая и нижняя облачность в баллах и высота нижней границы облаков в метрах; квадратными скобками обозначены формы облаков: Ci - перистые, Cs - перисто-слоистые, Cc - перисто-кучевые, Ac - высококучевые, As - высокослоистые, Sc - слоисто-кучевые, Ns - слоисто-дождевые, Cu - кучевые, Cb - кучево-дождевые. Подробнее классификацию облаков см. в Атласе облаков (PDF).
T - Температура воздуха - температура, измеренная на высоте 2 м над землей.
Td - Температура точки росы - температура, при понижении до которой содержащийся в воздухе водяной пар достигнет насыщения.
f - Относительная влажность воздуха - влажноcть воздуха, измеренная на высоте 2 м над землей.
Te - Эффективная температура - температура, которую ощущает одетый по сезону человек в тени. Характеристика душности погоды. При расчете учитывается влияние влажности воздуха и скорости ветра на теплоощущения человека.
Tes - Эффективная температура на солнце - температура, которую ощущает человек, с поправкой на солнечный нагрев. Характеристика знойности погоды. Зависит от высоты солнца над горизонтом, облачности и скорости ветра. Ночью, в пасмурную погоду, а также при ветре 12 м/с и более поправка равна нулю.
P - Атмосферное давление - приведенное к уровню моря атмосферное давление.
Po - Атмосферное давление - измеренное на уровне метеостанции атмосферное давление.
Tmin - Минимальная температура - минимум температуры воздуха на высоте 2 м над землей.
Tmax - Максимальная температура - максимум температуры воздуха на высоте 2 м над землей.
R - Количество осадков - Количество выпавших осадков за период времени, мм. При наведении курсора мыши на число - период времени, за который выпало указанное количество осадков.
R24 - Количество осадков - Количество выпавших осадков за 24 часа, мм.
S - Снежный покров - Высота снежного покрова, см. При наведении курсора мыши на число - состояние снежного покрова и степень покрытия местности в баллах.